Tracking 31027 objects as of 19-Jul-2025
HD Live streaming from Space Station
objects crossing your sky now

STARLINK-11205

Track STARLINK-11205 now!
10-day predictions
STARLINK-11205 is classified as:


NORAD ID: 60313
Int'l Code: 2024-133N
Perigee: 366.2 km
Apogee: 367.6 km
Inclination: 53.2 °
Period: 91.7 minutes
Semi major axis: 6737 km
RCS: Unknown
Launch date: July 28, 2024
Source: United States (US)
Launch site: AIR FORCE WESTERN TEST RANGE (AFWTR)
Your satellite tracking list
COSMOS 2251 DEB
Track 1 satellite(s)




NASA's NSSDC Master Catalog

Two Line Element Set (TLE):
1 60313U 24133N   25199.47100396 -.00000722  00000-0 -11031-5 0  9996
2 60313  53.1586 221.1063 0001079  89.5698 270.5444 15.69705317 56944
Source of the keplerian elements: AFSPC